SCP
0 0 0 0 0 0 0 0 0 0 0 0 0 0 0 0 -0 0 0 0 0 0 0 0 0 0 1 2 3 3 4 4 4 4 3 3 2 1 1 1 1 1 1 1
0 0 0 0 0 0 0 0 0 0 0 0 0 0 0 0 0 0 0 0 0 0 0 0 0 0 0 1 2 2 2 3 4 4 3 3 2 2 1 1 1 1 1 1
0 0 0 0 0 0 0 0 0 0 0 0 0 0 0 0 0 0 0 0 0 0 0 0 0 0 0 0 1 1 2 2 3 3 3 3 3 2 2 1 1 1 1 1
0 0 0 0 0 0 0 0 0 0 0 0 0 0 0 0 0 0 0 0 0 0 0 0 0 0 0 0 1 1 2 3 3 3 3 3 3 2 2 1 1 1 1 1
0 0 0 0 0 0 0 0 0 0 0 0 0 0 0 0 0 0 0 0 0 0 0 0 0 0 0 0 1 2 2 3 3 3 3 3 3 2 2 1 1 1 1 1
0 0 0 0 0 0 0 0 0 0 0 0 0 0 0 0 0 0 0 0 0 0 0 0 0 0 0 1 2 2 2 3 3 3 3 3 2 2 2 2 1 1 1 1
0 0 0 0 0 0 0 0 0 0 0 0 0 0 0 0 0 0 0 0 0 0 0 0 0 0 0 1 2 2 2 2 3 3 2 2 2 2 2 2 1 1 1 1
0 0 0 0 0 0 0 0 0 0 0 0 0 0 0 0 0 0 0 0 0 0 0 0 0 0 0 1 2 2 2 2 2 2 2 2 2 2 1 1 1 1 1 1
0 0 0 0 0 0 0 0 0 0 0 0 0 0 0 0 0 0 0 0 0 0 0 0 0 0 0 1 1 2 2 2 2 2 2 1 1 1 1 1 1 1 1 1
0 0 0 0 0 0 0 0 0 0 0 0 0 0 0 0 0 0 0 0 0 0 0 0 0 0 0 0 1 1 1 1 1 1 1 1 1 1 1 1 1 1 1 1
0 0 0 0 0 0 0 0 0 0 0 0 0 0 0 0 0 0 0 0 0 0 0 0 0 0 0 0 0 1 1 1 1 1 1 1 1 1 0 0 0 0 0 1
0 0 0 0 0 0 0 0 0 0 0 0 0 0 0 0 0 0 0 0 0 0 0 0 0 0 0 0 0 0 0 0 0 0 0 0 0 0 0 0 0 0 1 1
0 0 0 0 0 0 0 0 0 0 0 0 0 0 0 0 0 0 0 0 0 0 0 0 0 0 0 0 0 0 0 0 0 0 0 0 0 0 0 0 0 0 1 1
0 0 0 0 0 0 0 0 0 0 0 0 0 0 0 0 0 0 0 0 0 0 0 0 0 0 0 0 0 0 0 0 0 0 0 0 0 0 0 0 0 0 0 1
0 0 0 0 0 0 0 0 0 0 0 0 0 0 0 0 0 0 0 0 0 0 0 0 0 0 0 0 0 0 0 0 0 0 0 0 0 0 0 0 0 0 0 0
0 0 0 0 0 0 0 0 0 0 0 0 0 0 0 0 0 0 0 0 0 0 0 0 0 0 0 0 0 0 0 0 0 0 0 0 0 0 0 0 0 0 0 0
0 0 0 0 0 0 0 0 0 0 0 0 0 0 0 0 0 0 0 0 0 0 0 0 0 0 0 0 0 0 0 0 0 0 0 0 0 0 0 0 0 0 0 0
0 0 0 0 0 0 0 0 0 0 0 0 0 0 0 0 0 0 0 0 0 0 0 0 0 0 0 0 0 0 0 0 0 0 0 0 0 0 0 0 0 0 0 0
0 0 0 0 0 0 0 0 0 0 0 0 0 0 0 0 0 0 0 0 0 0 0 0 0 0 0 0 0 0 0 0 0 0 0 0 0 0 0 0 0 0 0 0
0 0 0 0 0 0 0 0 0 0 0 0 0 0 0 0 0 0 0 0 0 0 0 0 0 0 0 0 0 0 0 0 0 0 0 0 0 0 0 0 0 0 0 0
0 0 0 0 0 0 0 0 0 0 0 0 0 0 0 0 0 0 0 0 0 0 0 0 0 0 0 0 0 0 0 0 0 0 0 0 0 0 0 0 0 0 0 0
0 0 0 0 0 0 0 0 0 0 0 0 0 0 0 0 0 0 0 0 0 0 0 0 0 0 0 0 0 0 0 0 0 0 0 0 0 0 0 0 0 0 0 0
0 0 0 0 0 0 0 0 0 0 0 0 0 0 0 0 0 0 0 0 0 0 0 0 0 0 0 0 0 0 0 0 0 0 0 0 0 0 0 0 0 0 0 0
0 0 0 0 0 0 0 0 0 0 0 0 0 0 0 0 0 0 0 0 0 0 0 0 0 0 0 0 0 0 0 0 0 0 0 0 0 0 0 0 0 0 0 0
0 0 0 0 0 0 0 0 0 0 0 0 0 0 0 0 0 0 0 0 0 0 0 0 0 0 0 0 0 0 0 0 0 0 0 0 0 0 0 0 0 0 0 0
0 0 0 0 0 0 0 0 0 0 0 0 0 0 0 0 0 0 0 0 0 0 0 0 0 0 0 0 0 0 0 0 0 0 0 0 0 -0 -0 0 0 0 0 0
Wind_Speed
1 2 5 9 9 6 4 4 6 6 4 3 7 9 8 6 4 4 4 3 3 3 2 1 1 2 2 3 3 3 3 2 2 1 0 0 0 0 0 0 1 1 1 2
1 6 8 5 4 4 4 4 5 5 3 3 5 9 7 6 6 5 5 4 2 1 1 1 2 2 2 2 2 2 2 2 2 1 1 1 1 0 0 0 0 0 1 1
7 5 4 4 4 4 6 7 6 5 4 3 2 7 5 5 3 2 2 3 2 2 1 0 1 1 1 1 1 1 1 2 2 2 2 1 1 1 1 1 1 1 0 1
4 3 2 3 5 5 7 5 5 4 2 4 2 6 7 5 4 4 3 2 2 1 1 1 0 1 1 1 1 1 1 2 2 1 2 2 0 0 1 1 1 1 0 1
5 2 3 5 6 5 5 2 3 3 3 4 3 5 8 3 5 6 5 3 3 1 1 1 0 0 1 1 1 1 1 2 2 1 1 1 1 1 1 1 1 1 1 0
4 2 3 4 3 4 2 3 3 2 2 6 7 7 9 6 7 5 5 3 2 2 1 0 1 1 2 2 2 2 2 2 2 1 1 1 1 1 1 1 1 1 1 1
3 3 2 1 1 1 3 4 1 2 2 8 4 6 10 4 3 5 5 4 2 2 1 1 1 2 2 2 2 2 1 2 2 2 1 0 0 0 1 1 1 1 1 1
3 5 4 3 4 4 4 6 6 5 5 5 3 8 7 1 0 1 2 3 2 1 1 1 0 0 1 1 1 1 1 2 2 2 2 1 1 0 1 1 1 2 2 2
5 6 2 2 2 5 4 5 4 3 1 3 6 6 5 1 0 1 2 2 1 1 1 1 0 0 1 1 1 1 1 2 2 2 3 2 1 1 1 2 2 2 2 2
4 4 4 2 1 2 4 5 4 4 4 6 6 6 6 4 4 2 2 2 1 1 1 0 0 1 1 1 1 1 1 1 2 2 2 2 2 2 2 1 2 2 2 2
3 3 3 1 5 6 4 4 4 4 4 5 5 8 4 6 6 6 5 3 2 2 1 1 1 1 1 1 2 2 2 2 3 3 3 3 3 2 2 2 2 2 2 2
3 3 4 6 4 3 5 6 6 6 6 5 5 9 1 2 3 4 4 2 2 2 1 1 0 1 1 1 2 2 2 2 3 3 3 3 3 3 3 3 3 3 3 2
4 4 0 4 2 1 3 4 5 3 3 5 6 9 2 1 0 1 2 2 2 1 1 0 0 1 1 1 2 2 2 3 3 3 3 3 3 3 3 3 3 3 3 3
3 4 7 9 6 4 5 5 5 5 6 7 11 10 6 4 3 2 2 2 2 2 1 1 0 1 1 2 2 2 3 3 3 3 3 3 3 3 3 3 3 3 3 3
3 4 5 5 4 3 6 8 8 10 11 10 10 10 9 6 5 4 3 2 2 2 2 2 1 1 1 2 2 2 2 3 3 2 3 3 3 4 4 4 3 3 3 3
2 3 1 4 4 5 7 9 10 11 10 11 10 12 6 3 2 3 3 3 3 3 3 2 1 0 1 2 2 2 3 3 3 2 3 3 3 4 4 4 4 4 4 4
4 4 3 5 3 4 9 10 10 8 7 8 12 11 2 3 5 6 5 5 5 4 3 2 1 1 1 2 2 2 2 3 2 2 3 3 4 4 4 4 3 3 4 3
6 5 3 1 1 8 9 2 6 8 8 8 7 5 5 7 5 4 4 5 4 3 2 2 1 1 1 2 2 2 2 2 2 3 3 4 4 4 4 4 3 4 3 3
5 6 3 3 4 10 8 3 4 6 8 8 9 7 4 1 1 2 2 2 3 2 2 2 1 1 0 1 2 2 2 2 2 3 4 4 4 4 4 4 4 4 4 4
2 4 4 4 5 9 7 2 2 2 7 5 6 6 3 3 3 5 2 1 1 1 1 1 1 1 1 2 2 2 2 3 3 4 4 4 4 4 4 4 4 4 4 4
4 3 6 6 7 11 6 2 4 5 7 3 5 6 6 6 6 2 2 1 1 1 1 1 2 1 1 2 2 2 2 3 4 4 4 4 4 4 4 4 4 3 3 3
10 8 8 6 7 12 4 5 8 7 1 2 3 4 5 4 2 2 2 2 2 2 1 2 1 1 2 2 1 1 2 3 4 4 4 4 4 4 3 3 4 3 3 3
9 9 7 10 10 3 5 6 4 2 2 2 3 3 4 4 3 3 3 3 2 2 2 1 1 1 1 1 1 1 3 3 3 3 3 4 4 4 4 3 3 3 2 2
5 2 4 6 8 5 4 3 2 2 3 3 2 2 3 4 4 4 4 3 2 2 2 1 1 0 1 2 2 2 2 3 2 3 3 3 4 4 4 3 2 2 2 2
6 6 4 7 5 3 5 6 5 3 2 1 1 2 3 4 4 4 4 3 3 2 1 2 2 1 1 2 2 2 2 2 2 3 3 3 3 3 3 3 3 3 2 2
6 8 8 8 6 5 6 3 3 3 3 3 2 2 2 3 4 4 3 3 3 2 2 1 1 1 1 1 2 2 2 1 1 2 3 2 2 3 3 3 4 5 4 5
Wind_Direction
158 134 208 214 211 213 201 216 248 259 266 241 244 259 263 260 239 228 226 217 221 238 265 89 91 64 55 44 44 43 37 26 34 27 149 189 219 272 45 316 230 187 186 178
82 234 229 215 213 218 220 241 258 278 270 246 259 268 262 250 232 219 211 211 220 253 4 22 54 55 55 51 38 38 28 28 25 1 304 223 226 229 172 45 310 183 174 184
206 234 210 195 206 216 235 222 231 249 311 307 292 285 260 258 240 242 215 191 183 175 190 270 39 48 52 42 17 14 9 22 23 24 36 31 31 27 17 15 333 341 337 208
239 258 200 207 225 206 243 228 221 237 260 267 206 275 266 239 251 240 230 209 203 209 197 174 81 10 13 323 332 7 22 24 27 51 73 71 77 243 299 300 304 309 291 242
244 237 214 217 225 198 228 230 217 227 219 263 238 236 272 233 238 236 223 209 203 191 162 180 199 314 335 343 1 13 29 30 26 45 93 104 32 329 341 4 360 333 320 276
252 260 220 219 230 195 163 52 28 48 121 248 223 205 265 225 220 215 210 202 191 175 150 67 25 29 12 13 22 29 29 13 15 36 54 87 56 4 22 1 331 317 316 319
290 274 249 197 124 121 116 104 29 331 250 245 206 213 249 240 219 195 194 190 188 162 148 72 38 26 13 11 11 16 27 2 359 8 2 5 286 261 234 239 246 269 290 307
205 264 226 195 188 191 196 168 180 209 231 269 247 231 251 240 203 156 163 160 148 144 147 135 94 44 346 350 358 10 8 354 358 355 335 330 330 288 288 274 260 253 259 269
197 246 271 238 227 170 174 199 189 166 246 261 253 265 286 185 55 88 118 123 163 173 144 122 32 19 350 347 341 327 337 346 350 349 346 339 337 331 313 313 305 286 289 281
174 238 265 273 56 258 186 159 135 166 198 247 263 248 237 213 218 207 193 197 217 174 142 87 339 316 325 330 340 6 4 337 342 355 352 343 338 326 313 312 320 301 294 291
170 192 266 237 200 201 177 178 180 181 192 204 255 259 222 197 195 198 203 201 197 203 199 211 267 282 324 2 12 15 10 6 360 357 357 356 348 341 330 321 317 308 291 278
174 163 234 241 249 233 212 203 177 190 223 214 241 265 278 193 191 180 187 191 200 200 189 172 172 359 12 10 10 8 6 2 352 355 0 358 355 356 349 336 327 320 308 286
158 148 233 317 308 267 233 215 200 188 179 204 221 259 335 19 43 163 178 203 214 183 176 126 60 8 351 345 352 354 357 352 352 360 1 359 355 350 341 332 331 325 313 298
141 174 199 215 230 205 234 241 213 190 210 225 229 248 274 278 262 250 235 222 205 198 205 217 247 306 332 337 341 348 353 353 355 358 355 350 342 335 330 331 332 327 314 303
134 205 229 254 267 243 241 242 225 220 220 225 243 243 252 241 234 233 229 222 211 225 237 230 228 262 319 340 347 353 350 349 353 356 352 342 339 338 341 339 336 334 328 323
153 191 217 275 275 271 267 254 235 233 231 239 255 261 259 246 221 230 229 217 220 230 235 238 244 287 317 333 339 347 344 345 352 354 345 343 345 345 345 340 338 338 336 336
173 158 176 258 313 337 267 235 216 217 214 204 231 246 235 236 229 220 218 212 221 232 227 217 219 251 302 322 330 326 333 341 352 351 346 344 344 341 337 333 337 335 332 332
166 157 172 214 61 239 242 219 200 213 230 219 231 242 224 230 238 230 205 197 208 216 216 215 219 267 320 340 347 342 348 347 344 346 344 345 343 334 330 329 327 326 323 317
177 158 157 171 230 269 281 243 183 198 248 222 227 241 246 273 333 250 196 189 198 202 210 208 195 196 355 2 359 8 0 351 347 343 338 335 331 327 325 322 321 320 315 308
133 149 158 174 207 241 249 211 180 140 266 228 203 215 199 140 220 241 185 149 148 118 122 105 82 66 48 9 17 28 7 358 343 333 327 324 322 318 316 312 312 312 307 303
158 174 194 199 228 258 250 208 129 179 250 223 191 196 184 198 222 218 149 164 149 119 103 92 87 73 31 15 29 23 4 340 330 329 326 324 321 315 309 310 312 316 319 322
180 181 193 181 215 248 199 148 187 221 266 195 195 198 199 213 206 162 168 171 147 124 107 101 88 41 21 22 38 7 335 329 333 333 330 325 323 321 320 321 322 326 328 334
203 195 190 197 216 240 173 198 216 182 214 224 215 215 189 195 202 192 188 177 162 153 140 106 97 47 10 8 23 336 323 335 335 336 331 325 326 328 329 326 322 328 337 338
235 199 191 237 251 244 229 231 237 216 223 234 213 206 192 199 199 189 181 175 166 160 149 126 127 148 318 346 355 341 327 335 331 328 327 329 331 332 334 330 325 324 326 327
203 176 201 242 264 284 250 232 234 239 227 198 209 218 206 185 190 187 184 185 179 172 154 152 172 207 270 323 339 336 337 339 330 323 324 327 328 326 325 327 318 315 310 309
190 184 191 225 213 211 242 238 218 203 210 202 196 228 226 189 191 186 189 185 170 166 161 171 193 222 267 298 314 322 327 326 315 316 322 321 320 320 323 327 328 326 329 332